Year,Month,Day,Hour,Minute,Value (Times are PST for temperature in C)
2014,07,07,00,00,14.60
2014,07,07,00,01,14.60
2014,07,07,00,02,14.60
2014,07,07,00,03,14.60
2014,07,07,00,04,14.50
2014,07,07,00,05,14.50
2014,07,07,00,06,14.50
2014,07,07,00,07,14.50
2014,07,07,00,08,14.40
2014,07,07,00,09,14.40
2014,07,07,00,10,14.40
2014,07,07,00,11,14.40
2014,07,07,00,12,14.40
2014,07,07,00,13,14.40
2014,07,07,00,14,14.40
2014,07,07,00,15,14.30
2014,07,07,00,16,14.30
2014,07,07,00,17,14.30
2014,07,07,00,18,14.30
2014,07,07,00,19,14.30
2014,07,07,00,20,14.30
2014,07,07,00,21,14.30
2014,07,07,00,22,14.30
2014,07,07,00,23,14.30
2014,07,07,00,24,14.20
2014,07,07,00,25,14.20
2014,07,07,00,26,14.20
2014,07,07,00,27,14.20
2014,07,07,00,28,14.20
2014,07,07,00,29,14.20
2014,07,07,00,30,14.20
2014,07,07,00,31,14.20
2014,07,07,00,32,14.20
2014,07,07,00,33,14.20
2014,07,07,00,34,14.20
2014,07,07,00,35,14.10
2014,07,07,00,36,14.10
2014,07,07,00,37,14.10
2014,07,07,00,38,14.10
2014,07,07,00,39,14.10
2014,07,07,00,40,14.10
2014,07,07,00,41,14.10
2014,07,07,00,42,14.10
2014,07,07,00,43,14.10
2014,07,07,00,44,14.10
2014,07,07,00,45,14.10
2014,07,07,00,46,14.10
2014,07,07,00,47,14.10
2014,07,07,00,48,14.10
2014,07,07,00,49,14.10
2014,07,07,00,50,14.10
2014,07,07,00,51,14.10
2014,07,07,00,52,14.10
2014,07,07,00,53,14.10
2014,07,07,00,54,14.10
2014,07,07,00,55,14.10
2014,07,07,00,56,14.10
2014,07,07,00,57,14.10
2014,07,07,00,58,14.10
2014,07,07,00,59,14.10
2014,07,07,01,00,14.10
2014,07,07,01,01,14.00
2014,07,07,01,02,14.00
2014,07,07,01,03,14.00
2014,07,07,01,04,14.00
2014,07,07,01,05,14.00
2014,07,07,01,06,14.00
2014,07,07,01,07,14.10
2014,07,07,01,08,14.00
2014,07,07,01,09,14.00
2014,07,07,01,10,14.10
2014,07,07,01,11,14.10
2014,07,07,01,12,14.10
2014,07,07,01,13,14.10
2014,07,07,01,14,14.10
2014,07,07,01,15,14.10
2014,07,07,01,16,14.10
2014,07,07,01,17,14.10
2014,07,07,01,18,14.10
2014,07,07,01,19,14.10
2014,07,07,01,20,14.10
2014,07,07,01,21,14.10
2014,07,07,01,22,14.10
2014,07,07,01,23,14.10
2014,07,07,01,24,14.10
2014,07,07,01,25,14.10
2014,07,07,01,26,14.10
2014,07,07,01,27,14.10
2014,07,07,01,28,14.10
2014,07,07,01,29,14.10
2014,07,07,01,30,14.10
2014,07,07,01,31,14.20
2014,07,07,01,32,14.20
2014,07,07,01,33,14.20
2014,07,07,01,34,14.20
2014,07,07,01,35,14.20
2014,07,07,01,36,14.20
2014,07,07,01,37,14.20
2014,07,07,01,38,14.20
2014,07,07,01,39,14.20
2014,07,07,01,40,14.20
2014,07,07,01,41,14.30
2014,07,07,01,42,14.30
2014,07,07,01,43,14.30
2014,07,07,01,44,14.30
2014,07,07,01,45,14.30
2014,07,07,01,46,14.30
2014,07,07,01,47,14.30
2014,07,07,01,48,14.30
2014,07,07,01,49,14.30
2014,07,07,01,50,14.40
2014,07,07,01,51,14.40
2014,07,07,01,52,14.40
2014,07,07,01,53,14.40
2014,07,07,01,54,14.40
2014,07,07,01,55,14.40
2014,07,07,01,56,14.40
2014,07,07,01,57,14.40
2014,07,07,01,58,14.40
2014,07,07,01,59,14.40
2014,07,07,02,00,14.50
2014,07,07,02,01,14.50
2014,07,07,02,02,14.50
2014,07,07,02,03,14.50
2014,07,07,02,04,14.50
2014,07,07,02,05,14.50
2014,07,07,02,06,14.50
2014,07,07,02,07,14.50
2014,07,07,02,08,14.50
2014,07,07,02,09,14.50
2014,07,07,02,10,14.60
2014,07,07,02,11,14.60
2014,07,07,02,12,14.60
2014,07,07,02,13,14.60
2014,07,07,02,14,14.60
2014,07,07,02,15,14.60
2014,07,07,02,16,14.60
2014,07,07,02,17,14.60
2014,07,07,02,18,14.70
2014,07,07,02,19,14.70
2014,07,07,02,20,14.70
2014,07,07,02,21,14.70
2014,07,07,02,22,14.70
2014,07,07,02,23,14.70
2014,07,07,02,24,14.70
2014,07,07,02,25,14.70
2014,07,07,02,26,14.70
2014,07,07,02,27,14.70
2014,07,07,02,28,14.70
2014,07,07,02,29,14.70
2014,07,07,02,30,14.80
2014,07,07,02,31,14.80
2014,07,07,02,32,14.80
2014,07,07,02,33,14.80
2014,07,07,02,34,14.80
2014,07,07,02,35,14.80
2014,07,07,02,36,14.80
2014,07,07,02,37,14.80
2014,07,07,02,38,14.80
2014,07,07,02,39,14.80
2014,07,07,02,40,14.80
2014,07,07,02,41,14.80
2014,07,07,02,42,14.90
2014,07,07,02,43,14.90
2014,07,07,02,44,14.90
2014,07,07,02,45,14.90
2014,07,07,02,46,14.90
2014,07,07,02,47,14.90
2014,07,07,02,48,14.90
2014,07,07,02,49,14.90
2014,07,07,02,50,14.90
2014,07,07,02,51,14.90
2014,07,07,02,52,14.90
2014,07,07,02,53,14.90
2014,07,07,02,54,14.90
2014,07,07,02,55,14.90
2014,07,07,02,56,14.90
2014,07,07,02,57,14.90
2014,07,07,02,58,15.00
2014,07,07,02,59,15.00
2014,07,07,03,00,15.00
2014,07,07,03,01,15.00
2014,07,07,03,02,15.00
2014,07,07,03,03,15.00
2014,07,07,03,04,15.00
2014,07,07,03,05,15.10
2014,07,07,03,06,15.10
2014,07,07,03,07,15.10
2014,07,07,03,08,15.10
2014,07,07,03,09,15.10
2014,07,07,03,10,15.10
2014,07,07,03,11,15.10
2014,07,07,03,12,15.10
2014,07,07,03,13,15.10
2014,07,07,03,14,15.10
2014,07,07,03,15,15.10
2014,07,07,03,16,15.20
2014,07,07,03,17,15.20
2014,07,07,03,18,15.20
2014,07,07,03,19,15.20
2014,07,07,03,20,15.20
2014,07,07,03,21,15.20
2014,07,07,03,22,15.20
2014,07,07,03,23,15.20
2014,07,07,03,24,15.20
2014,07,07,03,25,15.20
2014,07,07,03,26,15.20
2014,07,07,03,27,15.20
2014,07,07,03,28,15.20
2014,07,07,03,29,15.20
2014,07,07,03,30,15.20
2014,07,07,03,31,15.20
2014,07,07,03,32,15.20
2014,07,07,03,33,15.20
2014,07,07,03,34,15.20
2014,07,07,03,35,15.20
2014,07,07,03,36,15.20
2014,07,07,03,37,15.20
2014,07,07,03,38,15.20
2014,07,07,03,39,15.20
2014,07,07,03,40,15.20
2014,07,07,03,41,15.20
2014,07,07,03,42,15.20
2014,07,07,03,43,15.20
2014,07,07,03,44,15.20
2014,07,07,03,45,15.20
2014,07,07,03,46,15.20
2014,07,07,03,47,15.20
2014,07,07,03,48,15.30
2014,07,07,03,49,15.30
2014,07,07,03,50,15.30
2014,07,07,03,51,15.30
2014,07,07,03,52,15.30
2014,07,07,03,53,15.30
2014,07,07,03,54,15.30
2014,07,07,03,55,15.30
2014,07,07,03,56,15.30
2014,07,07,03,57,15.30
2014,07,07,03,58,15.30
2014,07,07,03,59,15.30
2014,07,07,04,00,15.30
2014,07,07,04,01,15.30
2014,07,07,04,02,15.30
2014,07,07,04,03,15.30
2014,07,07,04,04,15.30
2014,07,07,04,05,15.30
2014,07,07,04,06,15.30
2014,07,07,04,07,15.30
2014,07,07,04,08,15.30
2014,07,07,04,09,15.30
2014,07,07,04,10,15.30
2014,07,07,04,11,15.30
2014,07,07,04,12,15.30
2014,07,07,04,13,15.30
2014,07,07,04,14,15.30
2014,07,07,04,15,15.30
2014,07,07,04,16,15.40
2014,07,07,04,17,15.40
2014,07,07,04,18,15.40
2014,07,07,04,19,15.40
2014,07,07,04,20,15.40
2014,07,07,04,21,15.40
2014,07,07,04,22,15.40
2014,07,07,04,23,15.40
2014,07,07,04,24,15.40
2014,07,07,04,25,15.40
2014,07,07,04,26,15.40
2014,07,07,04,27,15.40
2014,07,07,04,28,15.40
2014,07,07,04,29,15.40
2014,07,07,04,30,15.40
2014,07,07,04,31,15.40
2014,07,07,04,32,15.40
2014,07,07,04,33,15.40
2014,07,07,04,34,15.40
2014,07,07,04,35,15.40
2014,07,07,04,36,15.40
2014,07,07,04,37,15.50
2014,07,07,04,38,15.40
2014,07,07,04,39,15.50
2014,07,07,04,40,15.50
2014,07,07,04,41,15.50
2014,07,07,04,42,15.50
2014,07,07,04,43,15.50
2014,07,07,04,44,15.40
2014,07,07,04,45,15.50
2014,07,07,04,46,15.50
2014,07,07,04,47,15.50
2014,07,07,04,48,15.50
2014,07,07,04,49,15.50
2014,07,07,04,50,15.50
2014,07,07,04,51,15.50
2014,07,07,04,52,15.50
2014,07,07,04,53,15.50
2014,07,07,04,54,15.50
2014,07,07,04,55,15.50
2014,07,07,04,56,15.50
2014,07,07,04,57,15.50
2014,07,07,04,58,15.50
2014,07,07,04,59,15.50
2014,07,07,05,00,15.50
2014,07,07,05,01,15.50
2014,07,07,05,02,15.50
2014,07,07,05,03,15.50
2014,07,07,05,04,15.50
2014,07,07,05,05,15.60
2014,07,07,05,06,15.60
2014,07,07,05,07,15.60
2014,07,07,05,08,15.60
2014,07,07,05,09,15.60
2014,07,07,05,10,15.60
2014,07,07,05,11,15.60
2014,07,07,05,12,15.70
2014,07,07,05,13,15.70
2014,07,07,05,14,15.70
2014,07,07,05,15,15.70
2014,07,07,05,16,15.70
2014,07,07,05,17,15.70
2014,07,07,05,18,15.70
2014,07,07,05,19,15.70
2014,07,07,05,20,15.70
2014,07,07,05,21,15.70
2014,07,07,05,22,15.70
2014,07,07,05,23,15.70
2014,07,07,05,24,15.70
2014,07,07,05,25,15.70
2014,07,07,05,26,15.70
2014,07,07,05,27,15.70
2014,07,07,05,28,15.70
2014,07,07,05,29,15.70
2014,07,07,05,30,15.70
2014,07,07,05,31,15.70
2014,07,07,05,32,15.70
2014,07,07,05,33,15.70
2014,07,07,05,34,15.70
2014,07,07,05,35,15.70
2014,07,07,05,36,15.60
2014,07,07,05,37,15.60
2014,07,07,05,38,15.60
2014,07,07,05,39,15.60
2014,07,07,05,40,15.60
2014,07,07,05,41,15.60
2014,07,07,05,42,15.60
2014,07,07,05,43,15.60
2014,07,07,05,44,15.60
2014,07,07,05,45,15.60
2014,07,07,05,46,15.60
2014,07,07,05,47,15.60
2014,07,07,05,48,15.60
2014,07,07,05,49,15.60
2014,07,07,05,50,15.60
2014,07,07,05,51,15.60
2014,07,07,05,52,15.60
2014,07,07,05,53,15.60
2014,07,07,05,54,15.60
2014,07,07,05,55,15.60
2014,07,07,05,56,15.60
2014,07,07,05,57,15.60
2014,07,07,05,58,15.60
2014,07,07,05,59,15.60
2014,07,07,06,00,15.60
2014,07,07,06,01,15.60
2014,07,07,06,02,15.60
2014,07,07,06,03,15.60
2014,07,07,06,04,15.70
2014,07,07,06,05,15.70
2014,07,07,06,06,15.70
2014,07,07,06,07,15.70
2014,07,07,06,08,15.70
2014,07,07,06,09,15.70
2014,07,07,06,10,15.70
2014,07,07,06,11,15.70
2014,07,07,06,12,15.70
2014,07,07,06,13,15.70
2014,07,07,06,14,15.70
2014,07,07,06,15,15.70
2014,07,07,06,16,15.80
2014,07,07,06,17,15.80
2014,07,07,06,18,15.80
2014,07,07,06,19,15.80
2014,07,07,06,20,15.80
2014,07,07,06,21,15.80
2014,07,07,06,22,15.80
2014,07,07,06,23,15.80
2014,07,07,06,24,15.80
2014,07,07,06,25,15.80
2014,07,07,06,26,15.80
2014,07,07,06,27,15.80
2014,07,07,06,28,15.90
2014,07,07,06,29,15.90
2014,07,07,06,30,15.90
2014,07,07,06,31,15.90
2014,07,07,06,32,15.90
2014,07,07,06,33,15.90
2014,07,07,06,34,15.90
2014,07,07,06,35,15.90
2014,07,07,06,36,15.90
2014,07,07,06,37,15.90
2014,07,07,06,38,15.90
2014,07,07,06,39,15.90
2014,07,07,06,40,15.90
2014,07,07,06,41,16.00
2014,07,07,06,42,16.00
2014,07,07,06,43,16.00
2014,07,07,06,44,16.00
2014,07,07,06,45,16.00
2014,07,07,06,46,16.10
2014,07,07,06,47,16.10
2014,07,07,06,48,16.10
2014,07,07,06,49,16.10
2014,07,07,06,50,16.10
2014,07,07,06,51,16.10
2014,07,07,06,52,16.10
2014,07,07,06,53,16.10
2014,07,07,06,54,16.10
2014,07,07,06,55,16.10
2014,07,07,06,56,16.10
2014,07,07,06,57,16.10
2014,07,07,06,58,16.20
2014,07,07,06,59,16.20
2014,07,07,07,00,16.20
2014,07,07,07,01,16.20
2014,07,07,07,02,16.20
2014,07,07,07,03,16.20
2014,07,07,07,04,16.20
2014,07,07,07,05,16.20
2014,07,07,07,06,16.20
2014,07,07,07,07,16.20
2014,07,07,07,08,16.20
2014,07,07,07,09,16.20
2014,07,07,07,10,16.20
2014,07,07,07,11,16.20
2014,07,07,07,12,16.20
2014,07,07,07,13,16.30
2014,07,07,07,14,16.30
2014,07,07,07,15,16.30
2014,07,07,07,16,16.30
2014,07,07,07,17,16.30
2014,07,07,07,18,16.30
2014,07,07,07,19,16.30
2014,07,07,07,20,16.30
2014,07,07,07,21,16.30
2014,07,07,07,22,16.30
2014,07,07,07,23,16.30
2014,07,07,07,24,16.40
2014,07,07,07,25,16.40
2014,07,07,07,26,16.40
2014,07,07,07,27,16.40
2014,07,07,07,28,16.40
2014,07,07,07,29,16.40
2014,07,07,07,30,16.40
2014,07,07,07,31,16.40
2014,07,07,07,32,16.40
2014,07,07,07,33,16.40
2014,07,07,07,34,16.40
2014,07,07,07,35,16.40
2014,07,07,07,36,16.40
2014,07,07,07,37,16.40
2014,07,07,07,38,16.50
2014,07,07,07,39,16.50
2014,07,07,07,40,16.50
2014,07,07,07,41,16.50
2014,07,07,07,42,16.50
2014,07,07,07,43,16.50
2014,07,07,07,44,16.60
2014,07,07,07,45,16.60
2014,07,07,07,46,16.60
2014,07,07,07,47,16.60
2014,07,07,07,48,16.60
2014,07,07,07,49,16.60
2014,07,07,07,50,16.60
2014,07,07,07,51,16.60
2014,07,07,07,52,16.60
2014,07,07,07,53,16.60
2014,07,07,07,54,16.60
2014,07,07,07,55,16.60
2014,07,07,07,56,16.70
2014,07,07,07,57,16.70
2014,07,07,07,58,16.70
2014,07,07,07,59,16.80
2014,07,07,08,00,16.80
2014,07,07,08,01,16.80
2014,07,07,08,02,16.90
2014,07,07,08,03,16.90
2014,07,07,08,04,16.90
2014,07,07,08,05,16.90
2014,07,07,08,06,16.90
2014,07,07,08,07,16.90
2014,07,07,08,08,17.00
2014,07,07,08,09,17.00
2014,07,07,08,10,17.00
2014,07,07,08,11,17.10
2014,07,07,08,12,17.10
2014,07,07,08,13,17.10
2014,07,07,08,14,17.20
2014,07,07,08,15,17.20
2014,07,07,08,16,17.20
2014,07,07,08,17,17.30
2014,07,07,08,18,17.30
2014,07,07,08,19,17.30
2014,07,07,08,20,17.40
2014,07,07,08,21,17.40
2014,07,07,08,22,17.50
2014,07,07,08,23,17.50
2014,07,07,08,24,17.60
2014,07,07,08,25,17.60
2014,07,07,08,26,17.70
2014,07,07,08,27,17.70
2014,07,07,08,28,17.70
2014,07,07,08,29,17.70
2014,07,07,08,30,17.70
2014,07,07,08,31,17.60
2014,07,07,08,32,17.60
2014,07,07,08,33,17.60
2014,07,07,08,34,17.60
2014,07,07,08,35,17.60
2014,07,07,08,36,17.60
2014,07,07,08,37,17.60
2014,07,07,08,38,17.60
2014,07,07,08,39,17.60
2014,07,07,08,40,17.60
2014,07,07,08,41,17.60
2014,07,07,08,42,17.60
2014,07,07,08,43,17.60
2014,07,07,08,44,17.60
2014,07,07,08,45,17.70
2014,07,07,08,46,17.70
2014,07,07,08,47,17.70
2014,07,07,08,48,17.70
2014,07,07,08,49,17.70
2014,07,07,08,50,17.70
2014,07,07,08,51,17.70
2014,07,07,08,52,17.80
2014,07,07,08,53,17.80
2014,07,07,08,54,17.80
2014,07,07,08,55,17.80
2014,07,07,08,56,17.80
2014,07,07,08,57,17.80
2014,07,07,08,58,17.90
2014,07,07,08,59,17.90
2014,07,07,09,00,17.90
2014,07,07,09,01,18.00
2014,07,07,09,02,18.00
2014,07,07,09,03,18.10
2014,07,07,09,04,18.10
2014,07,07,09,05,18.10
2014,07,07,09,06,18.20
2014,07,07,09,07,18.20
2014,07,07,09,08,18.30
2014,07,07,09,09,18.30
2014,07,07,09,10,18.40
2014,07,07,09,11,18.40
2014,07,07,09,12,18.50
2014,07,07,09,13,18.40
2014,07,07,09,14,18.50
2014,07,07,09,15,18.50
2014,07,07,09,16,18.60
2014,07,07,09,17,18.60
2014,07,07,09,18,18.60
2014,07,07,09,19,18.70
2014,07,07,09,20,18.70
2014,07,07,09,21,18.70
2014,07,07,09,22,18.70
2014,07,07,09,23,18.60
2014,07,07,09,24,18.50
2014,07,07,09,25,18.40
2014,07,07,09,26,18.30
2014,07,07,09,27,18.30
2014,07,07,09,28,18.30
2014,07,07,09,29,18.30
2014,07,07,09,30,18.40
2014,07,07,09,31,18.50
2014,07,07,09,32,18.50
2014,07,07,09,33,18.60
2014,07,07,09,34,18.60
2014,07,07,09,35,18.70
2014,07,07,09,36,18.70
2014,07,07,09,37,18.70
2014,07,07,09,38,18.70
2014,07,07,09,39,18.80
2014,07,07,09,40,18.80
2014,07,07,09,41,18.80
2014,07,07,09,42,18.80
2014,07,07,09,43,18.80
2014,07,07,09,44,18.90
2014,07,07,09,45,19.00
2014,07,07,09,46,19.00
2014,07,07,09,47,19.10
2014,07,07,09,48,19.20
2014,07,07,09,49,19.20
2014,07,07,09,50,19.20
2014,07,07,09,51,19.30
2014,07,07,09,52,19.30
2014,07,07,09,53,19.30
2014,07,07,09,54,19.30
2014,07,07,09,55,19.40
2014,07,07,09,56,19.40
2014,07,07,09,57,19.50
2014,07,07,09,58,19.50
2014,07,07,09,59,19.50
2014,07,07,10,00,19.50
2014,07,07,10,01,19.40
2014,07,07,10,02,19.40
2014,07,07,10,03,19.40
2014,07,07,10,04,19.40
2014,07,07,10,05,19.30
2014,07,07,10,06,19.30
2014,07,07,10,07,19.40
2014,07,07,10,08,19.40
2014,07,07,10,09,19.40
2014,07,07,10,10,19.50
2014,07,07,10,11,19.60
2014,07,07,10,12,19.60
2014,07,07,10,13,19.70
2014,07,07,10,14,19.70
2014,07,07,10,15,19.70
2014,07,07,10,16,19.60
2014,07,07,10,17,19.60
2014,07,07,10,18,19.60
2014,07,07,10,19,19.50
2014,07,07,10,20,19.40
2014,07,07,10,21,19.30
2014,07,07,10,22,19.20
2014,07,07,10,23,19.20
2014,07,07,10,24,19.20
2014,07,07,10,25,19.20
2014,07,07,10,26,19.20
2014,07,07,10,27,19.10
2014,07,07,10,28,19.10
2014,07,07,10,29,19.20
2014,07,07,10,30,19.20
2014,07,07,10,31,19.10
2014,07,07,10,32,19.10
2014,07,07,10,33,19.10
2014,07,07,10,34,19.20
2014,07,07,10,35,19.20
2014,07,07,10,36,19.10
2014,07,07,10,37,19.10
2014,07,07,10,38,19.10
2014,07,07,10,39,19.00
2014,07,07,10,40,19.10
2014,07,07,10,41,19.10
2014,07,07,10,42,19.00
2014,07,07,10,43,18.90
2014,07,07,10,44,18.90
2014,07,07,10,45,18.90
2014,07,07,10,46,18.90
2014,07,07,10,47,18.80
2014,07,07,10,48,18.90
2014,07,07,10,49,19.00
2014,07,07,10,50,19.00
2014,07,07,10,51,19.00
2014,07,07,10,52,19.10
2014,07,07,10,53,19.10
2014,07,07,10,54,19.10
2014,07,07,10,55,19.10
2014,07,07,10,56,19.10
2014,07,07,10,57,19.10
2014,07,07,10,58,19.10
2014,07,07,10,59,19.00
2014,07,07,11,00,19.00
2014,07,07,11,01,18.90
2014,07,07,11,02,18.80
2014,07,07,11,03,18.80
2014,07,07,11,04,18.80
2014,07,07,11,05,18.80
2014,07,07,11,06,18.70
2014,07,07,11,07,18.70
2014,07,07,11,08,18.70
2014,07,07,11,09,18.70
2014,07,07,11,10,18.70
2014,07,07,11,11,18.80
2014,07,07,11,12,18.90
2014,07,07,11,13,18.90
2014,07,07,11,14,19.00
2014,07,07,11,15,19.00
2014,07,07,11,16,19.10
2014,07,07,11,17,19.00
2014,07,07,11,18,19.00
2014,07,07,11,19,18.90
2014,07,07,11,20,18.90
2014,07,07,11,21,18.80
2014,07,07,11,22,18.80
2014,07,07,11,23,18.80
2014,07,07,11,24,18.80
2014,07,07,11,25,18.90
2014,07,07,11,26,18.90
2014,07,07,11,27,19.00
2014,07,07,11,28,19.10
2014,07,07,11,29,19.10
2014,07,07,11,30,19.10
2014,07,07,11,31,19.10
2014,07,07,11,32,19.20
2014,07,07,11,33,19.30
2014,07,07,11,34,19.30
2014,07,07,11,35,19.50
2014,07,07,11,36,19.60
2014,07,07,11,37,19.70
2014,07,07,11,38,19.80
2014,07,07,11,39,19.90
2014,07,07,11,40,20.00
2014,07,07,11,41,20.00
2014,07,07,11,42,19.90
2014,07,07,11,43,19.90
2014,07,07,11,44,19.90
2014,07,07,11,45,19.90
2014,07,07,11,46,19.90
2014,07,07,11,47,19.90
2014,07,07,11,48,19.90
2014,07,07,11,49,19.90
2014,07,07,11,50,19.90
2014,07,07,11,51,19.90
2014,07,07,11,52,19.90
2014,07,07,11,53,19.90
2014,07,07,11,54,20.00
2014,07,07,11,55,20.00
2014,07,07,11,56,20.10
2014,07,07,11,57,20.30
2014,07,07,11,58,20.40
2014,07,07,11,59,20.40
2014,07,07,12,00,20.40
2014,07,07,12,01,20.40
2014,07,07,12,02,20.40
2014,07,07,12,03,20.40
2014,07,07,12,04,20.40
2014,07,07,12,05,20.40
2014,07,07,12,06,20.40
2014,07,07,12,07,20.50
2014,07,07,12,08,20.60
2014,07,07,12,09,20.60
2014,07,07,12,10,20.70
2014,07,07,12,11,20.80
2014,07,07,12,12,20.80
2014,07,07,12,13,20.80
2014,07,07,12,14,20.80
2014,07,07,12,15,20.80
2014,07,07,12,16,20.80
2014,07,07,12,17,20.70
2014,07,07,12,18,20.70
2014,07,07,12,19,20.70
2014,07,07,12,20,20.70
2014,07,07,12,21,20.70
2014,07,07,12,22,20.80
2014,07,07,12,23,20.80
2014,07,07,12,24,20.90
2014,07,07,12,25,21.00
2014,07,07,12,26,21.10
2014,07,07,12,27,21.10
2014,07,07,12,28,21.20
2014,07,07,12,29,21.20
2014,07,07,12,30,21.20
2014,07,07,12,31,21.20
2014,07,07,12,32,21.20
2014,07,07,12,33,21.30
2014,07,07,12,34,21.30
2014,07,07,12,35,21.30
2014,07,07,12,36,21.30
2014,07,07,12,37,21.20
2014,07,07,12,38,21.20
2014,07,07,12,39,21.20
2014,07,07,12,40,21.20
2014,07,07,12,41,21.20
2014,07,07,12,42,21.30
2014,07,07,12,43,21.30
2014,07,07,12,44,21.30
2014,07,07,12,45,21.30
2014,07,07,12,46,21.40
2014,07,07,12,47,21.40
2014,07,07,12,48,21.50
2014,07,07,12,49,21.50
2014,07,07,12,50,21.50
2014,07,07,12,51,21.60
2014,07,07,12,52,21.60
2014,07,07,12,53,21.60
2014,07,07,12,54,21.60
2014,07,07,12,55,21.70
2014,07,07,12,56,21.70
2014,07,07,12,57,21.70
2014,07,07,12,58,21.60
2014,07,07,12,59,21.60
2014,07,07,13,00,21.60
2014,07,07,13,01,21.60
2014,07,07,13,02,21.60
2014,07,07,13,03,21.60
2014,07,07,13,04,21.70
2014,07,07,13,05,21.70
2014,07,07,13,06,21.80
2014,07,07,13,07,21.90
2014,07,07,13,08,22.00
2014,07,07,13,09,22.00
2014,07,07,13,10,22.00
2014,07,07,13,11,22.00
2014,07,07,13,12,21.90
2014,07,07,13,13,21.90
2014,07,07,13,14,21.80
2014,07,07,13,15,21.80
2014,07,07,13,16,21.80
2014,07,07,13,17,21.70
2014,07,07,13,18,21.60
2014,07,07,13,19,21.70
2014,07,07,13,20,21.70
2014,07,07,13,21,21.70
2014,07,07,13,22,21.70
2014,07,07,13,23,21.70
2014,07,07,13,24,21.60
2014,07,07,13,25,21.50
2014,07,07,13,26,21.50
2014,07,07,13,27,21.40
2014,07,07,13,28,21.40
2014,07,07,13,29,21.30
2014,07,07,13,30,21.30
2014,07,07,13,31,21.30
2014,07,07,13,32,21.30
2014,07,07,13,33,21.40
2014,07,07,13,34,21.60
2014,07,07,13,35,21.60
2014,07,07,13,36,21.70
2014,07,07,13,37,21.70
2014,07,07,13,38,21.80
2014,07,07,13,39,21.80
2014,07,07,13,40,21.80
2014,07,07,13,41,21.80
2014,07,07,13,42,21.80
2014,07,07,13,43,21.80
2014,07,07,13,44,21.90
2014,07,07,13,45,22.00
2014,07,07,13,46,22.10
2014,07,07,13,47,22.20
2014,07,07,13,48,22.40
2014,07,07,13,49,22.50
2014,07,07,13,50,22.60
2014,07,07,13,51,22.60
2014,07,07,13,52,22.60
2014,07,07,13,53,22.60
2014,07,07,13,54,22.60
2014,07,07,13,55,22.50
2014,07,07,13,56,22.40
2014,07,07,13,57,22.40
2014,07,07,13,58,22.40
2014,07,07,13,59,22.40
2014,07,07,14,00,22.30
2014,07,07,14,01,22.30
2014,07,07,14,02,22.30
2014,07,07,14,03,22.30
2014,07,07,14,04,22.30
2014,07,07,14,05,22.20
2014,07,07,14,06,22.20
2014,07,07,14,07,22.10
2014,07,07,14,08,22.10
2014,07,07,14,09,22.20
2014,07,07,14,10,22.20
2014,07,07,14,11,22.20
2014,07,07,14,12,22.20
2014,07,07,14,13,22.20
2014,07,07,14,14,22.20
2014,07,07,14,15,22.20
2014,07,07,14,16,22.20
2014,07,07,14,17,22.30
2014,07,07,14,18,22.40
2014,07,07,14,19,22.40
2014,07,07,14,20,22.40
2014,07,07,14,21,22.40
2014,07,07,14,22,22.40
2014,07,07,14,23,22.50
2014,07,07,14,24,22.50
2014,07,07,14,25,22.40
2014,07,07,14,26,22.40
2014,07,07,14,27,22.40
2014,07,07,14,28,22.40
2014,07,07,14,29,22.40
2014,07,07,14,30,22.40
2014,07,07,14,31,22.30
2014,07,07,14,32,22.40
2014,07,07,14,33,22.40
2014,07,07,14,34,22.50
2014,07,07,14,35,22.60
2014,07,07,14,36,22.70
2014,07,07,14,37,22.80
2014,07,07,14,38,22.80
2014,07,07,14,39,22.80
2014,07,07,14,40,22.90
2014,07,07,14,41,23.00
2014,07,07,14,42,23.00
2014,07,07,14,43,23.10
2014,07,07,14,44,23.20
2014,07,07,14,45,23.20
2014,07,07,14,46,23.20
2014,07,07,14,47,23.20
2014,07,07,14,48,23.20
2014,07,07,14,49,23.20
2014,07,07,14,50,23.30
2014,07,07,14,51,23.30
2014,07,07,14,52,23.30
2014,07,07,14,53,23.40
2014,07,07,14,54,23.40
2014,07,07,14,55,23.30
2014,07,07,14,56,23.30
2014,07,07,14,57,23.30
2014,07,07,14,58,23.30
2014,07,07,14,59,23.30
2014,07,07,15,00,23.40
2014,07,07,15,01,23.30
2014,07,07,15,02,23.40
2014,07,07,15,03,23.40
2014,07,07,15,04,23.50
2014,07,07,15,05,23.60
2014,07,07,15,06,23.60
2014,07,07,15,07,23.70
2014,07,07,15,08,23.80
2014,07,07,15,09,23.80
2014,07,07,15,10,23.80
2014,07,07,15,11,23.80
2014,07,07,15,12,23.80
2014,07,07,15,13,23.70
2014,07,07,15,14,23.70
2014,07,07,15,15,23.70
2014,07,07,15,16,23.70
2014,07,07,15,17,23.70
2014,07,07,15,18,23.70
2014,07,07,15,19,23.70
2014,07,07,15,20,23.60
2014,07,07,15,21,23.60
2014,07,07,15,22,23.50
2014,07,07,15,23,23.50
2014,07,07,15,24,23.50
2014,07,07,15,25,23.40
2014,07,07,15,26,23.40
2014,07,07,15,27,23.40
2014,07,07,15,28,23.50
2014,07,07,15,29,23.50
2014,07,07,15,30,23.50
2014,07,07,15,31,23.60
2014,07,07,15,32,23.60
2014,07,07,15,33,23.60
2014,07,07,15,34,23.60
2014,07,07,15,35,23.50
2014,07,07,15,36,23.50
2014,07,07,15,37,23.50
2014,07,07,15,38,23.50
2014,07,07,15,39,23.50
2014,07,07,15,40,23.50
2014,07,07,15,41,23.50
2014,07,07,15,42,23.50
2014,07,07,15,43,23.50
2014,07,07,15,44,23.60
2014,07,07,15,45,23.60
2014,07,07,15,46,23.60
2014,07,07,15,47,23.70
2014,07,07,15,48,23.70
2014,07,07,15,49,23.70
2014,07,07,15,50,23.70
2014,07,07,15,51,23.70
2014,07,07,15,52,23.70
2014,07,07,15,53,23.70
2014,07,07,15,54,23.70
2014,07,07,15,55,23.70
2014,07,07,15,56,23.70
2014,07,07,15,57,23.70
2014,07,07,15,58,23.80
2014,07,07,15,59,23.80
2014,07,07,16,00,23.70
2014,07,07,16,01,23.70
2014,07,07,16,02,23.70
2014,07,07,16,03,23.60
2014,07,07,16,04,23.60
2014,07,07,16,05,23.60
2014,07,07,16,06,23.60
2014,07,07,16,07,23.60
2014,07,07,16,08,23.60
2014,07,07,16,09,23.60
2014,07,07,16,10,23.60
2014,07,07,16,11,23.60
2014,07,07,16,12,23.70
2014,07,07,16,13,23.70
2014,07,07,16,14,23.70
2014,07,07,16,15,23.80
2014,07,07,16,16,23.80
2014,07,07,16,17,23.80
2014,07,07,16,18,23.90
2014,07,07,16,19,23.90
2014,07,07,16,20,24.00
2014,07,07,16,21,24.10
2014,07,07,16,22,24.20
2014,07,07,16,23,24.20
2014,07,07,16,24,24.30
2014,07,07,16,25,24.50
2014,07,07,16,26,24.60
2014,07,07,16,27,24.60
2014,07,07,16,28,24.70
2014,07,07,16,29,24.70
2014,07,07,16,30,24.80
2014,07,07,16,31,24.80
2014,07,07,16,32,24.80
2014,07,07,16,33,24.90
2014,07,07,16,34,25.00
2014,07,07,16,35,25.00
2014,07,07,16,36,25.10
2014,07,07,16,37,25.10
2014,07,07,16,38,25.10
2014,07,07,16,39,25.00
2014,07,07,16,40,24.90
2014,07,07,16,41,24.90
2014,07,07,16,42,24.80
2014,07,07,16,43,24.80
2014,07,07,16,44,24.80
2014,07,07,16,45,24.80
2014,07,07,16,46,24.80
2014,07,07,16,47,24.80
2014,07,07,16,48,24.80
2014,07,07,16,49,24.80
2014,07,07,16,50,24.80
2014,07,07,16,51,24.80
2014,07,07,16,52,24.80
2014,07,07,16,53,24.80
2014,07,07,16,54,24.80
2014,07,07,16,55,24.80
2014,07,07,16,56,24.80
2014,07,07,16,57,24.80
2014,07,07,16,58,24.90
2014,07,07,16,59,24.80
2014,07,07,17,00,24.80
2014,07,07,17,01,24.80
2014,07,07,17,02,24.80
2014,07,07,17,03,24.70
2014,07,07,17,04,24.70
2014,07,07,17,05,24.70
2014,07,07,17,06,24.70
2014,07,07,17,07,24.60
2014,07,07,17,08,24.60
2014,07,07,17,09,24.60
2014,07,07,17,10,24.60
2014,07,07,17,11,24.60
2014,07,07,17,12,24.60
2014,07,07,17,13,24.70
2014,07,07,17,14,24.70
2014,07,07,17,15,24.60
2014,07,07,17,16,24.60
2014,07,07,17,17,24.60
2014,07,07,17,18,24.50
2014,07,07,17,19,24.50